PORT of AGIOS KONSTANTINOS

Land: Greece Land: Greece [GR]
Bredde og lengdegrad: 38.758095° / 22.866425° Vis i kart
Lokal tid:  [UTC +3]
UN/LOCODE: GRAKO
Forventet ankomst: 3

Siste ankomster og avganger


Fartøyets navn
Ankomst (UTC)
Ankomst (LT)
Avgang (UTC)
Avgang (LT)
Vessel Type: Passasjer båt  OSIOS DAVID 2014-08-22 08:06:00 2014-08-22 11:06:00 2014-08-22 08:46:00 2014-08-22 11:46:00
Vessel Type: Passasjer båt  EXPRESS PEGASUS 2014-08-21 18:17:00 2014-08-21 21:17:00 2014-08-22 07:13:00 2014-08-22 10:13:00
Vessel Type: Passasjer båt  OSIOS DAVID 2014-08-22 06:09:00 2014-08-22 09:09:00 2014-08-22 06:39:00 2014-08-22 09:39:00
Vessel Type: Hurtigbåt  FLYINGCAT 6 2014-08-21 16:19:00 2014-08-21 19:19:00 2014-08-21 16:49:00 2014-08-21 19:49:00
Vessel Type: Passasjer båt  OSIOS DAVID 2014-08-21 16:07:00 2014-08-21 19:07:00 2014-08-21 16:37:00 2014-08-21 19:37:00
Vessel Type: Hurtigbåt  FLYING DOLPHIN ERATO 2014-08-21 15:29:00 2014-08-21 18:29:00 2014-08-21 15:45:00 2014-08-21 18:45:00
Vessel Type: Passasjer båt  OSIOS DAVID 2014-08-21 14:05:00 2014-08-21 17:05:00 2014-08-21 14:36:00 2014-08-21 17:36:00
Vessel Type: Passasjer båt  OSIOS DAVID 2014-08-21 12:07:00 2014-08-21 15:07:00 2014-08-21 12:39:00 2014-08-21 15:39:00
Vessel Type: Passasjer båt  EXPRESS PEGASUS 2014-08-20 18:27:00 2014-08-20 21:27:00 2014-08-21 07:14:00 2014-08-21 10:14:00
DIMITRA V 2014-08-20 23:28:00 2014-08-21 02:28:00 2014-08-20 23:42:00 2014-08-21 02:42:00

Forventet ankomst


Fartøyets navn
Scheduled Arrival (UTC)
Fastsatt ankomsttid (lokal)
Beregnet ankomst (UTC)
Beregnet ankomst lokal tid
Vessel Type: Hurtigbåt  FLYING DOLPHIN ERATO 2014-08-22 14:55:00 2014-08-22 17:55:00
Vessel Type: Hurtigbåt  FLYINGCAT 6 2014-08-22 16:20:00 2014-08-22 19:20:00
Vessel Type: Passasjer båt  EXPRESS PEGASUS 2014-08-22 17:30:00 2014-08-22 20:30:00

Wind Forecast


    
Tid (UTC)
Fart
Direction
Temperature
2014-08-22 09:00:00 6 knots 63° 26°C
2014-08-22 12:00:00 7 knots 70° 26°C
2014-08-22 15:00:00 6 knots 56° 26°C
2014-08-22 18:00:00 4 knots 18° 26°C
2014-08-22 21:00:00 5 knots 291° 26°C
2014-08-23 00:00:00 8 knots 283° 26°C
2014-08-23 03:00:00 8 knots 273° 25°C
2014-08-23 06:00:00 2 knots 334° 25°C
2014-08-23 09:00:00 4 knots 71° 27°C
2014-08-23 12:00:00 7 knots 69° 27°C
2014-08-23 15:00:00 8 knots 55° 26°C
2014-08-23 18:00:00 3 knots 348° 26°C
2014-08-23 21:00:00 9 knots 275° 26°C
2014-08-24 00:00:00 11 knots 291° 26°C
2014-08-24 03:00:00 9 knots 306° 25°C
2014-08-24 06:00:00 5 knots 313° 25°C
2014-08-24 09:00:00 4 knots 68° 27°C